| time (UTC) | temp F | wind direction | speed MPH | gust MPH | rain 1hr in | rain 24hr in | rain mn in | humidity % | barometer mb |
| 20260507101008 | 70 | 48 | 1.0 | 5.0 | 0.00 | 0.00 | 0.00 | 42 | 1015.8 |
| 20260507100510 | 70 | 11 | 1.0 | 5.0 | 0.00 | 0.00 | 0.00 | 42 | 1015.8 |
| 20260507100008 | 70 | 270 | 1.0 | 5.0 | 0.00 | 0.00 | 0.00 | 42 | 1016.0 |
| 20260507095506 | 70 | 42 | 1.0 | 4.0 | 0.00 | 0.00 | 0.00 | 43 | 1015.9 |
| 20260507095007 | 69 | 254 | 1.0 | 5.0 | 0.00 | 0.00 | 0.00 | 43 | 1016.0 |
| 20260507094507 | 69 | 222 | 1.0 | 6.0 | 0.00 | 0.00 | 0.00 | 43 | 1016.0 |
| 20260507094006 | 69 | 175 | 2.0 | 6.0 | 0.00 | 0.00 | 0.00 | 43 | 1016.2 |
| 20260507093004 | 68 | 200 | 1.0 | 6.0 | 0.00 | 0.00 | 0.00 | 44 | 1016.2 |
| 20260507092507 | 69 | 130 | 1.0 | 6.0 | 0.00 | 0.00 | 0.00 | 44 | 1016.2 |
| 20260507091503 | 68 | 34 | 0.0 | 4.0 | 0.00 | 0.00 | 0.00 | 46 | 1016.4 |
| 20260507091001 | 68 | 39 | 1.0 | 9.0 | 0.00 | 0.00 | 0.00 | 46 | 1016.4 |
| 20260507090505 | 67 | 38 | 2.0 | 9.0 | 0.00 | 0.00 | 0.00 | 46 | 1016.4 |
| 20260507090002 | 67 | 147 | 1.0 | 7.0 | 0.00 | 0.00 | 0.00 | 47 | 1016.4 |
| 20260507085500 | 67 | 115 | 1.0 | 5.0 | 0.00 | 0.00 | 0.00 | 49 | 1016.4 |
| 20260507084959 | 67 | 5 | 1.0 | 5.0 | 0.00 | 0.00 | 0.00 | 47 | 1016.5 |
| 20260507084455 | 67 | 86 | 2.0 | 5.0 | 0.00 | 0.00 | 0.00 | 48 | 1016.5 |
| 20260507083954 | 66 | 20 | 2.0 | 5.0 | 0.00 | 0.00 | 0.00 | 50 | 1016.5 |
| 20260507083455 | 66 | 203 | 1.0 | 5.0 | 0.00 | 0.00 | 0.00 | 51 | 1016.5 |
| 20260507082954 | 66 | 301 | 1.0 | 4.0 | 0.00 | 0.00 | 0.00 | 50 | 1016.6 |
| 20260507082451 | 66 | 322 | 1.0 | 4.0 | 0.00 | 0.00 | 0.00 | 50 | 1016.6 |
| 20260507081454 | 65 | 196 | 1.0 | 4.0 | 0.00 | 0.00 | 0.00 | 53 | 1016.7 |
| 20260507080952 | 65 | 167 | 1.0 | 4.0 | 0.00 | 0.00 | 0.00 | 53 | 1016.7 |
| 20260507080451 | 64 | 187 | 1.0 | 7.0 | 0.00 | 0.00 | 0.00 | 53 | 1016.8 |
| 20260507075950 | 65 | 90 | 1.0 | 7.0 | 0.00 | 0.00 | 0.00 | 51 | 1016.8 |
| 20260507075447 | 65 | 105 | 1.0 | 6.0 | 0.00 | 0.00 | 0.00 | 53 | 1016.8 |
| 20260507074447 | 65 | 34 | 1.0 | 7.0 | 0.00 | 0.00 | 0.00 | 54 | 1016.6 |
| 20260507073947 | 64 | 138 | 1.0 | 5.0 | 0.00 | 0.00 | 0.00 | 53 | 1016.5 |
| 20260507073445 | 64 | 175 | 2.0 | 5.0 | 0.00 | 0.00 | 0.00 | 53 | 1016.5 |
| 20260507072944 | 64 | 144 | 2.0 | 6.0 | 0.00 | 0.00 | 0.00 | 53 | 1016.5 |
| 20260507072444 | 64 | 163 | 2.0 | 6.0 | 0.00 | 0.00 | 0.00 | 53 | 1016.6 |
| 20260507071945 | 63 | 172 | 2.0 | 7.0 | 0.00 | 0.00 | 0.00 | 52 | 1016.5 |
| 20260507071445 | 64 | 144 | 2.0 | 7.0 | 0.00 | 0.00 | 0.00 | 52 | 1016.6 |
| 20260507070941 | 64 | 156 | 2.0 | 7.0 | 0.00 | 0.00 | 0.00 | 52 | 1016.7 |
| 20260507070440 | 64 | 150 | 2.0 | 7.0 | 0.00 | 0.00 | 0.00 | 53 | 1016.7 |
| 20260507065935 | 64 | 130 | 1.0 | 7.0 | 0.00 | 0.00 | 0.00 | 54 | 1016.8 |
| 20260507065435 | 63 | 130 | 1.0 | 4.0 | 0.00 | 0.00 | 0.00 | 53 | 1016.8 |
| 20260507064934 | 63 | 307 | 1.0 | 4.0 | 0.00 | 0.00 | 0.00 | 53 | 1016.7 |
| 20260507064431 | 62 | 336 | 1.0 | 4.0 | 0.00 | 0.00 | 0.00 | 53 | 1016.7 |
| 20260507063929 | 62 | 29 | 1.0 | 4.0 | 0.00 | 0.00 | 0.00 | 53 | 1016.8 |
| 20260507063430 | 62 | 27 | 1.0 | 4.0 | 0.00 | 0.00 | 0.00 | 54 | 1016.7 |
| 20260507062930 | 62 | 29 | 1.0 | 4.0 | 0.00 | 0.00 | 0.00 | 56 | 1016.7 |
| 20260507062429 | 61 | 18 | 0.0 | 3.0 | 0.00 | 0.00 | 0.00 | 57 | 1016.7 |
| 20260507061928 | 60 | 246 | 0.0 | 4.0 | 0.00 | 0.00 | 0.00 | 57 | 1016.6 |
| 20260507061422 | 60 | 246 | 1.0 | 4.0 | 0.00 | 0.00 | 0.00 | 57 | 1016.8 |
| 20260507060921 | 60 | 355 | 0.0 | 3.0 | 0.00 | 0.00 | 0.00 | 59 | 1016.8 |
| 20260507055911 | 59 | 355 | 1.0 | 3.0 | 0.00 | 0.00 | 0.00 | 59 | 1016.7 |
| 20260507054911 | 60 | 342 | 1.0 | 4.0 | 0.00 | 0.00 | 0.00 | 61 | 1016.6 |
| 20260507053911 | 58 | 5 | 1.0 | 4.0 | 0.00 | 0.00 | 0.00 | 64 | 1016.5 |
| 20260507053418 | 58 | 5 | 1.0 | 5.0 | 0.00 | 0.00 | 0.00 | 65 | 1016.5 |
| 20260507052911 | 58 | 0 | 1.0 | 5.0 | 0.00 | 0.00 | 0.00 | 67 | 1016.5 |
| 20260507052411 | 57 | 17 | 2.0 | 5.0 | 0.00 | 0.00 | 0.00 | 67 | 1016.6 |
| 20260507051910 | 57 | 5 | 2.0 | 5.0 | 0.00 | 0.00 | 0.00 | 68 | 1016.5 |
| 20260507051411 | 56 | 5 | 2.0 | 5.0 | 0.00 | 0.00 | 0.00 | 70 | 1016.5 |
| 20260507050909 | 56 | 5 | 1.0 | 4.0 | 0.00 | 0.00 | 0.00 | 72 | 1016.5 |
| 20260507050410 | 55 | 5 | 1.0 | 4.0 | 0.00 | 0.00 | 0.00 | 73 | 1016.5 |
| 20260507045909 | 55 | 5 | 1.0 | 4.0 | 0.00 | 0.00 | 0.00 | 75 | 1016.4 |
| 20260507045408 | 55 | 0 | 0.0 | 3.0 | 0.00 | 0.00 | 0.00 | 79 | 1016.3 |
| 20260507044904 | 54 | 355 | 0.0 | 3.0 | 0.00 | 0.00 | 0.00 | 81 | 1016.3 |
| 20260507044405 | 53 | 355 | 1.0 | 3.0 | 0.00 | 0.00 | 0.00 | 83 | 1016.2 |
| 20260507043905 | 53 | 355 | 1.0 | 3.0 | 0.00 | 0.00 | 0.00 | 84 | 1016.3 |
| 20260507043407 | 53 | 355 | 0.0 | 3.0 | 0.00 | 0.00 | 0.00 | 85 | 1016.3 |
| 20260507042905 | 53 | 355 | 0.0 | 3.0 | 0.00 | 0.00 | 0.00 | 86 | 1016.3 |
| 20260507042409 | 53 | 355 | 1.0 | 3.0 | 0.00 | 0.00 | 0.00 | 87 | 1016.3 |
| 20260507041906 | 52 | 355 | 1.0 | 3.0 | 0.00 | 0.00 | 0.00 | 88 | 1016.2 |
| 20260507041402 | 51 | 355 | 1.0 | 3.0 | 0.00 | 0.00 | 0.00 | 88 | 1016.2 |
| 20260507040903 | 51 | 355 | 2.0 | 3.0 | 0.00 | 0.00 | 0.00 | 89 | 1016.1 |
| 20260507035905 | 50 | 342 | 1.0 | 3.0 | 0.00 | 0.00 | 0.00 | 90 | 1016.1 |
| 20260507035405 | 49 | 342 | 2.0 | 4.0 | 0.00 | 0.00 | 0.00 | 90 | 1016.0 |
| 20260507034907 | 49 | 342 | 1.0 | 4.0 | 0.00 | 0.00 | 0.00 | 89 | 1015.9 |
| 20260507034404 | 49 | 342 | 1.0 | 3.0 | 0.00 | 0.00 | 0.00 | 89 | 1015.9 |
| 20260507033905 | 49 | 341 | 2.0 | 3.0 | 0.00 | 0.00 | 0.00 | 89 | 1015.9 |
| 20260507033402 | 48 | 341 | 1.0 | 3.0 | 0.00 | 0.00 | 0.00 | 89 | 1015.9 |
| 20260507032903 | 48 | 341 | 0.0 | 2.0 | 0.00 | 0.00 | 0.00 | 89 | 1015.8 |
| 20260507032406 | 48 | 341 | 0.0 | 1.0 | 0.00 | 0.00 | 0.00 | 89 | 1015.8 |
| 20260507031859 | 48 | 341 | 0.0 | 1.0 | 0.00 | 0.00 | 0.00 | 89 | 1015.7 |
| 20260507030859 | 48 | 341 | 0.0 | 1.0 | 0.00 | 0.00 | 0.00 | 89 | 1015.8 |
| 20260507030359 | 48 | 341 | 0.0 | 1.0 | 0.00 | 0.00 | 0.00 | 89 | 1015.7 |
| 20260507025901 | 48 | 340 | 0.0 | 0.0 | 0.00 | 0.00 | 0.00 | 89 | 1015.5 |
| 20260507025347 | 48 | 340 | 0.0 | 1.0 | 0.00 | 0.00 | 0.00 | 89 | 1015.4 |
| 20260507024844 | 48 | 340 | 0.0 | 1.0 | 0.00 | 0.00 | 0.00 | 89 | 1015.5 |
| 20260507024331 | 48 | 340 | 0.0 | 1.0 | 0.00 | 0.00 | 0.00 | 89 | 1015.4 |
| 20260507023823 | 48 | 340 | 0.0 | 1.0 | 0.00 | 0.00 | 0.00 | 89 | 1015.3 |
| 20260507023316 | 48 | 340 | 0.0 | 0.0 | 0.00 | 0.00 | 0.00 | 89 | 1015.3 |
| 20260507022812 | 48 | 340 | 0.0 | 0.0 | 0.00 | 0.00 | 0.00 | 88 | 1015.3 |
| 20260507021808 | 48 | 340 | 0.0 | 0.0 | 0.00 | 0.00 | 0.00 | 89 | 1015.3 |
| 20260507021309 | 48 | 340 | 0.0 | 0.0 | 0.00 | 0.00 | 0.00 | 88 | 1015.3 |
| 20260507020804 | 48 | 340 | 0.0 | 1.0 | 0.00 | 0.00 | 0.00 | 89 | 1015.3 |
| 20260507020304 | 48 | 340 | 0.0 | 1.0 | 0.00 | 0.00 | 0.00 | 89 | 1015.3 |
| 20260507015306 | 49 | 340 | 0.0 | 1.0 | 0.00 | 0.00 | 0.00 | 89 | 1015.3 |
| 20260507014802 | 49 | 340 | 0.0 | 1.0 | 0.00 | 0.00 | 0.00 | 88 | 1015.3 |
| 20260507014300 | 49 | 340 | 0.0 | 1.0 | 0.00 | 0.00 | 0.00 | 89 | 1015.3 |
| 20260507013802 | 49 | 340 | 0.0 | 0.0 | 0.00 | 0.00 | 0.00 | 89 | 1015.3 |
| 20260507013258 | 49 | 340 | 0.0 | 0.0 | 0.00 | 0.00 | 0.00 | 88 | 1015.3 |
| 20260507012751 | 49 | 340 | 0.0 | 0.0 | 0.00 | 0.00 | 0.00 | 89 | 1015.2 |
| 20260507012255 | 49 | 340 | 0.0 | 1.0 | 0.00 | 0.00 | 0.00 | 89 | 1015.2 |
| 20260507011751 | 49 | 340 | 0.0 | 1.0 | 0.00 | 0.00 | 0.00 | 89 | 1015.3 |
| 20260507010225 | 49 | 340 | 0.0 | 1.0 | 0.00 | 0.00 | 0.00 | 89 | 1015.2 |
| 20260507005727 | 49 | 340 | 0.0 | 1.0 | 0.00 | 0.00 | 0.00 | 89 | 1015.3 |
| 20260507005227 | 49 | 340 | 0.0 | 0.0 | 0.00 | 0.00 | 0.00 | 89 | 1015.3 |
| 20260507004722 | 49 | 340 | 0.0 | 1.0 | 0.00 | 0.00 | 0.00 | 88 | 1015.3 |
| 20260507004207 | 49 | 340 | 0.0 | 1.0 | 0.00 | 0.00 | 0.00 | 89 | 1015.3 |
| 20260507003726 | 49 | 340 | 0.0 | 0.0 | 0.00 | 0.00 | 0.00 | 89 | 1015.3 |
| 20260507003206 | 49 | 340 | 0.0 | 0.0 | 0.00 | 0.00 | 0.00 | 89 | 1015.3 |
| 20260507002207 | 49 | 340 | 0.0 | 2.0 | 0.00 | 0.00 | 0.00 | 89 | 1015.4 |
| 20260507001207 | 49 | 340 | 0.0 | 2.0 | 0.00 | 0.00 | 0.00 | 89 | 1015.4 |
| 20260507000715 | 49 | 340 | 0.0 | 1.0 | 0.00 | 0.00 | 0.00 | 89 | 1015.4 |
| 20260507000207 | 50 | 340 | 0.0 | 1.0 | 0.00 | 0.00 | 0.00 | 89 | 1015.4 |
| 20260506235716 | 50 | 340 | 0.0 | 1.0 | 0.00 | 0.00 | 0.00 | 89 | 1015.5 |
| 20260506235205 | 50 | 340 | 0.0 | 1.0 | 0.00 | 0.00 | 0.00 | 89 | 1015.5 |
| 20260506234713 | 50 | 340 | 0.0 | 1.0 | 0.00 | 0.00 | 0.00 | 89 | 1015.7 |
| 20260506234145 | 50 | 340 | 0.0 | 1.0 | 0.00 | 0.00 | 0.00 | 89 | 1015.7 |
| 20260506232119 | 50 | 340 | 1.0 | 3.0 | 0.00 | 0.00 | 0.00 | 89 | 1015.9 |
| 20260506231701 | 50 | 340 | 1.0 | 4.0 | 0.00 | 0.00 | 0.00 | 89 | 1015.8 |
| 20260506230703 | 51 | 340 | 1.0 | 4.0 | 0.00 | 0.00 | 0.00 | 89 | 1015.9 |
| 20260506230110 | 51 | 340 | 1.0 | 5.0 | 0.00 | 0.00 | 0.00 | 89 | 1015.8 |
| 20260506225702 | 51 | 342 | 2.0 | 7.0 | 0.00 | 0.00 | 0.00 | 89 | 1015.8 |
| 20260506225104 | 51 | 5 | 3.0 | 9.0 | 0.00 | 0.00 | 0.00 | 88 | 1015.7 |
| 20260506224655 | 51 | 333 | 4.0 | 9.0 | 0.00 | 0.00 | 0.00 | 88 | 1015.8 |
| 20260506224108 | 51 | 343 | 3.0 | 6.0 | 0.00 | 0.00 | 0.00 | 89 | 1015.8 |
| 20260506223656 | 51 | 347 | 2.0 | 6.0 | 0.00 | 0.00 | 0.00 | 89 | 1015.8 |
| 20260506222654 | 51 | 342 | 1.0 | 4.0 | 0.00 | 0.00 | 0.00 | 88 | 1016.0 |
| 20260506221102 | 51 | 329 | 2.0 | 5.0 | 0.00 | 0.00 | 0.00 | 88 | 1016.1 |
| 20260506220648 | 51 | 332 | 2.0 | 4.0 | 0.00 | 0.00 | 0.00 | 88 | 1016.1 |
| 20260506215646 | 51 | 303 | 1.0 | 3.0 | 0.00 | 0.00 | 0.00 | 88 | 1016.2 |
| 20260506215040 | 51 | 302 | 1.0 | 3.0 | 0.00 | 0.00 | 0.00 | 88 | 1016.2 |
| 20260506214641 | 51 | 302 | 1.0 | 3.0 | 0.00 | 0.00 | 0.00 | 88 | 1016.3 |
| 20260506214019 | 51 | 302 | 1.0 | 4.0 | 0.00 | 0.00 | 0.00 | 88 | 1016.4 |
| 20260506213642 | 52 | 304 | 2.0 | 4.0 | 0.00 | 0.00 | 0.00 | 88 | 1016.4 |
| 20260506212632 | 52 | 325 | 2.0 | 4.0 | 0.00 | 0.00 | 0.00 | 87 | 1016.5 |
| 20260506211636 | 52 | 310 | 1.0 | 4.0 | 0.00 | 0.00 | 0.00 | 87 | 1016.5 |
| 20260506210959 | 52 | 315 | 2.0 | 4.0 | 0.00 | 0.00 | 0.00 | 87 | 1016.5 |
| 20260506210635 | 52 | 309 | 2.0 | 4.0 | 0.00 | 0.00 | 0.00 | 87 | 1016.5 |
| 20260506205959 | 52 | 297 | 2.0 | 5.0 | 0.00 | 0.00 | 0.00 | 87 | 1016.5 |
| 20260506205629 | 52 | 308 | 1.0 | 5.0 | 0.00 | 0.00 | 0.00 | 87 | 1016.5 |
| 20260506204959 | 52 | 290 | 1.0 | 4.0 | 0.00 | 0.00 | 0.00 | 87 | 1016.5 |
| 20260506203626 | 52 | 314 | 2.0 | 5.0 | 0.00 | 0.00 | 0.00 | 86 | 1016.5 |
| 20260506201922 | 53 | 340 | 3.0 | 10.0 | 0.00 | 0.00 | 0.00 | 86 | 1016.4 |
| 20260506201625 | 53 | 285 | 4.0 | 10.0 | 0.00 | 0.00 | 0.00 | 86 | 1016.4 |
| 20260506200919 | 53 | 345 | 5.0 | 10.0 | 0.00 | 0.00 | 0.00 | 85 | 1016.4 |
| 20260506200618 | 53 | 355 | 5.0 | 9.0 | 0.00 | 0.00 | 0.00 | 85 | 1016.4 |
| 20260506195917 | 53 | 332 | 5.0 | 9.0 | 0.00 | 0.00 | 0.00 | 85 | 1016.3 |
| 20260506195619 | 53 | 355 | 5.0 | 9.0 | 0.00 | 0.00 | 0.00 | 85 | 1016.3 |
| 20260506194917 | 53 | 17 | 6.0 | 10.0 | 0.00 | 0.00 | 0.00 | 85 | 1016.4 |
| 20260506194621 | 53 | 17 | 5.0 | 10.0 | 0.00 | 0.00 | 0.00 | 85 | 1016.4 |
| 20260506193918 | 53 | 355 | 4.0 | 9.0 | 0.00 | 0.00 | 0.00 | 85 | 1016.4 |
| 20260506193614 | 53 | 0 | 3.0 | 9.0 | 0.00 | 0.00 | 0.00 | 85 | 1016.4 |
| 20260506192916 | 53 | 313 | 4.0 | 12.0 | 0.00 | 0.00 | 0.00 | 84 | 1016.4 |
| 20260506192614 | 53 | 26 | 6.0 | 12.0 | 0.00 | 0.00 | 0.00 | 84 | 1016.4 |
| 20260506191916 | 53 | 327 | 7.0 | 12.0 | 0.00 | 0.00 | 0.00 | 84 | 1016.4 |
| 20260506191615 | 54 | 323 | 7.0 | 13.0 | 0.00 | 0.00 | 0.00 | 84 | 1016.4 |
| 20260506190914 | 54 | 355 | 7.0 | 13.0 | 0.00 | 0.00 | 0.00 | 84 | 1016.4 |
| 20260506190615 | 54 | 25 | 6.0 | 11.0 | 0.00 | 0.00 | 0.00 | 83 | 1016.5 |
| 20260506185909 | 54 | 10 | 4.0 | 9.0 | 0.00 | 0.00 | 0.00 | 83 | 1016.6 |
| 20260506184910 | 54 | 343 | 3.0 | 8.0 | 0.00 | 0.00 | 0.00 | 82 | 1016.5 |
| 20260506184607 | 54 | 0 | 2.0 | 8.0 | 0.00 | 0.00 | 0.00 | 82 | 1016.5 |
| 20260506183911 | 54 | 333 | 4.0 | 9.0 | 0.00 | 0.00 | 0.00 | 82 | 1016.5 |
| 20260506183608 | 54 | 330 | 6.0 | 11.0 | 0.00 | 0.00 | 0.00 | 82 | 1016.4 |
| 20260506182605 | 54 | 324 | 6.0 | 10.0 | 0.00 | 0.00 | 0.00 | 81 | 1016.6 |
| 20260506181909 | 55 | 338 | 4.0 | 10.0 | 0.00 | 0.00 | 0.00 | 81 | 1016.5 |
| 20260506181600 | 55 | 344 | 4.0 | 10.0 | 0.00 | 0.00 | 0.00 | 81 | 1016.4 |
| 20260506180909 | 55 | 296 | 3.0 | 10.0 | 0.00 | 0.00 | 0.00 | 80 | 1016.4 |
| 20260506175557 | 55 | 335 | 3.0 | 8.0 | 0.00 | 0.00 | 0.00 | 79 | 1016.2 |
| 20260506174911 | 55 | 345 | 4.0 | 9.0 | 0.00 | 0.00 | 0.00 | 79 | 1016.2 |
| 20260506174554 | 55 | 5 | 5.0 | 9.0 | 0.00 | 0.00 | 0.00 | 79 | 1016.1 |
| 20260506173909 | 55 | 343 | 5.0 | 10.0 | 0.00 | 0.00 | 0.00 | 79 | 1016.2 |
| 20260506172912 | 55 | 317 | 5.0 | 10.0 | 0.00 | 0.00 | 0.00 | 78 | 1016.0 |
| 20260506171551 | 56 | 311 | 5.0 | 11.0 | 0.00 | 0.00 | 0.00 | 77 | 1015.8 |
| 20260506170905 | 56 | 322 | 5.0 | 10.0 | 0.00 | 0.00 | 0.00 | 76 | 1015.8 |
| 20260506165906 | 56 | 336 | 5.0 | 12.0 | 0.00 | 0.00 | 0.00 | 75 | 1015.7 |
| 20260506165547 | 56 | 311 | 6.0 | 12.0 | 0.00 | 0.00 | 0.00 | 75 | 1015.5 |
| 20260506164908 | 56 | 0 | 6.0 | 14.0 | 0.00 | 0.00 | 0.00 | 75 | 1015.4 |
| 20260506164548 | 57 | 342 | 5.0 | 14.0 | 0.00 | 0.00 | 0.00 | 74 | 1015.3 |
| 20260506163903 | 57 | 315 | 5.0 | 9.0 | 0.00 | 0.00 | 0.00 | 74 | 1015.3 |
| 20260506163546 | 57 | 355 | 5.0 | 11.0 | 0.00 | 0.00 | 0.00 | 74 | 1015.2 |
| 20260506162902 | 57 | 313 | 5.0 | 11.0 | 0.00 | 0.00 | 0.00 | 73 | 1015.3 |
| 20260506161907 | 58 | 338 | 6.0 | 11.0 | 0.00 | 0.00 | 0.00 | 73 | 1015.1 |
| 20260506161538 | 58 | 351 | 7.0 | 12.0 | 0.00 | 0.00 | 0.00 | 73 | 1015.1 |
| 20260506160900 | 58 | 15 | 7.0 | 12.0 | 0.00 | 0.00 | 0.00 | 72 | 1015.0 |
| 20260506160536 | 58 | 340 | 7.0 | 14.0 | 0.00 | 0.00 | 0.00 | 72 | 1014.9 |
| 20260506155903 | 58 | 45 | 8.0 | 14.0 | 0.00 | 0.00 | 0.00 | 72 | 1014.9 |
| 20260506155535 | 59 | 342 | 7.0 | 12.0 | 0.00 | 0.00 | 0.00 | 71 | 1014.9 |
| 20260506154902 | 59 | 13 | 6.0 | 12.0 | 0.00 | 0.00 | 0.00 | 71 | 1014.9 |
| 20260506154532 | 59 | 9 | 7.0 | 13.0 | 0.00 | 0.00 | 0.00 | 71 | 1014.9 |
| 20260506153857 | 59 | 355 | 8.0 | 14.0 | 0.00 | 0.00 | 0.00 | 70 | 1014.9 |
| 20260506153532 | 60 | 28 | 8.0 | 14.0 | 0.00 | 0.00 | 0.00 | 69 | 1014.9 |
| 20260506152859 | 60 | 340 | 8.0 | 13.0 | 0.00 | 0.00 | 0.00 | 68 | 1014.9 |
| 20260506152531 | 61 | 336 | 8.0 | 13.0 | 0.00 | 0.00 | 0.00 | 68 | 1014.8 |
| 20260506151856 | 61 | 355 | 7.0 | 14.0 | 0.00 | 0.00 | 0.00 | 67 | 1014.8 |
| 20260506151527 | 62 | 0 | 7.0 | 14.0 | 0.00 | 0.00 | 0.00 | 66 | 1014.8 |
| 20260506150858 | 62 | 317 | 7.0 | 14.0 | 0.00 | 0.00 | 0.00 | 65 | 1014.9 |
| 20260506150527 | 62 | 10 | 6.0 | 14.0 | 0.00 | 0.00 | 0.00 | 65 | 1014.8 |
| 20260506145847 | 62 | 324 | 6.0 | 14.0 | 0.00 | 0.00 | 0.00 | 65 | 1014.8 |
| 20260506145545 | 62 | 322 | 5.0 | 14.0 | 0.00 | 0.00 | 0.00 | 64 | 1014.8 |
| 20260506144849 | 62 | 33 | 4.0 | 11.0 | 0.00 | 0.00 | 0.00 | 65 | 1014.7 |
| 20260506142849 | 63 | 0 | 6.0 | 12.0 | 0.00 | 0.00 | 0.00 | 63 | 1014.8 |
| 20260506142520 | 62 | 37 | 6.0 | 13.0 | 0.00 | 0.00 | 0.00 | 63 | 1014.8 |
| 20260506141517 | 63 | 5 | 6.0 | 14.0 | 0.00 | 0.00 | 0.00 | 63 | 1014.8 |
| 20260506140849 | 63 | 344 | 5.0 | 14.0 | 0.00 | 0.00 | 0.00 | 62 | 1014.8 |
| 20260506135848 | 63 | 355 | 6.0 | 13.0 | 0.00 | 0.00 | 0.00 | 62 | 1014.8 |
| 20260506135514 | 63 | 288 | 7.0 | 13.0 | 0.00 | 0.00 | 0.00 | 63 | 1014.9 |
| 20260506134846 | 63 | 327 | 6.0 | 11.0 | 0.00 | 0.00 | 0.00 | 63 | 1014.8 |
| 20260506134511 | 63 | 287 | 6.0 | 11.0 | 0.00 | 0.00 | 0.00 | 64 | 1014.9 |
| 20260506133846 | 63 | 324 | 7.0 | 13.0 | 0.00 | 0.00 | 0.00 | 64 | 1014.9 |
| 20260506132846 | 62 | 351 | 6.0 | 13.0 | 0.00 | 0.00 | 0.00 | 66 | 1014.9 |
| 20260506132511 | 62 | 327 | 6.0 | 12.0 | 0.00 | 0.00 | 0.00 | 68 | 1015.0 |
| 20260506131849 | 61 | 355 | 7.0 | 13.0 | 0.00 | 0.00 | 0.00 | 68 | 1015.1 |
| 20260506130846 | 61 | 266 | 6.0 | 15.0 | 0.00 | 0.00 | 0.00 | 69 | 1015.2 |
| 20260506130505 | 61 | 342 | 6.0 | 11.0 | 0.00 | 0.00 | 0.00 | 71 | 1015.2 |
| 20260506125847 | 60 | 288 | 6.0 | 11.0 | 0.00 | 0.00 | 0.00 | 69 | 1015.3 |
| 20260506125501 | 61 | 322 | 6.0 | 11.0 | 0.00 | 0.00 | 0.00 | 69 | 1015.3 |
| 20260506124848 | 61 | 333 | 6.0 | 11.0 | 0.00 | 0.00 | 0.00 | 68 | 1015.4 |
| 20260506124459 | 61 | 242 | 6.0 | 11.0 | 0.00 | 0.00 | 0.00 | 67 | 1015.7 |
| 20260506123846 | 62 | 282 | 6.0 | 11.0 | 0.00 | 0.00 | 0.00 | 66 | 1015.7 |
| 20260506123455 | 62 | 327 | 6.0 | 13.0 | 0.00 | 0.00 | 0.00 | 65 | 1015.4 |
| 20260506122839 | 63 | 293 | 6.0 | 13.0 | 0.00 | 0.00 | 0.00 | 64 | 1015.7 |
| 20260506121456 | 64 | 346 | 4.0 | 12.0 | 0.00 | 0.00 | 0.00 | 63 | 1015.8 |
| 20260506120839 | 64 | 257 | 5.0 | 11.0 | 0.00 | 0.00 | 0.00 | 65 | 1015.8 |
| 20260506120451 | 63 | 0 | 5.0 | 6.0 | 0.00 | 0.00 | 0.00 | 66 | 1015.8 |
| 20260506115841 | 62 | 290 | 6.0 | 10.0 | 0.00 | 0.00 | 0.00 | 66 | 1015.8 |
| 20260506115451 | 63 | 290 | 6.0 | 11.0 | 0.00 | 0.00 | 0.00 | 65 | 1015.8 |
| 20260506114829 | 63 | 265 | 6.0 | 12.0 | 0.00 | 0.00 | 0.00 | 64 | 1015.8 |
| 20260506113833 | 63 | 279 | 6.0 | 11.0 | 0.00 | 0.00 | 0.00 | 66 | 1015.8 |
| 20260506113445 | 62 | 246 | 5.0 | 12.0 | 0.00 | 0.00 | 0.00 | 66 | 1015.9 |
| 20260506112832 | 62 | 329 | 5.0 | 12.0 | 0.00 | 0.00 | 0.00 | 67 | 1015.9 |
| 20260506110834 | 61 | 322 | 6.0 | 12.0 | 0.00 | 0.00 | 0.00 | 69 | 1016.1 |
| 20260506110445 | 61 | 340 | 6.0 | 12.0 | 0.00 | 0.00 | 0.00 | 69 | 1016.0 |
| 20260506105828 | 61 | 297 | 5.0 | 10.0 | 0.00 | 0.00 | 0.00 | 70 | 1016.0 |
| 20260506105440 | 60 | 300 | 6.0 | 12.0 | 0.00 | 0.00 | 0.00 | 70 | 1016.0 |
| 20260506104818 | 60 | 327 | 7.0 | 12.0 | 0.00 | 0.00 | 0.00 | 70 | 1016.0 |
| 20260506104436 | 60 | 290 | 6.0 | 12.0 | 0.00 | 0.00 | 0.00 | 69 | 1016.0 |